Location: Melbourne
(37.8666°S, 145.1333°E)
Time: 19:26:43
(UTC+10:00)

HST - Visible Passes

Search period start: 23 August 2014 00:00
Search period end: 02 September 2014 00:00
Orbit: 547 x 551 km, 28.5° (Epoch: 22 August)

Date Brightness Start Highest point End Pass type
(mag) Time Alt. Az. Time Alt. Az. Time Alt. Az.
23 Aug 3.2 19:08:43 10° NW 19:11:14 15° NNW 19:13:45 10° NNE visible
24 Aug 3.4 19:02:12 10° NW 19:04:12 13° NNW 19:06:11 10° N visible
25 Aug 3.6 18:56:12 10° NNW 18:57:08 11° NNW 18:58:04 10° N visible
